| time (UTC) | temp C | wind direction | speed KPH | gust KPH | rain 1hr cm | rain 24hr cm | rain mn cm | humidity % | barometer mb |
| 20260505003301 | 26 | 163 | 3.2 | 12.9 | 0.00 | 0.00 | 0.00 | 73 | 1011.1 |
| 20260505003049 | 26 | 92 | 1.6 | 12.9 | 0.00 | 0.00 | 0.00 | 72 | 1011.4 |
| 20260505002801 | 26 | 47 | 4.8 | 12.9 | 0.00 | 0.00 | 0.00 | 72 | 1011.1 |
| 20260505002303 | 27 | 195 | 3.2 | 16.1 | 0.00 | 0.00 | 0.00 | 72 | 1011.1 |
| 20260505002023 | 27 | 96 | 1.6 | 16.1 | 0.00 | 0.00 | 0.00 | 71 | 1011.1 |
| 20260505001611 | 27 | 82 | 3.2 | 16.1 | 0.00 | 0.00 | 0.00 | 70 | 1011.5 |
| 20260505001302 | 27 | 148 | 1.6 | 11.3 | 0.00 | 0.00 | 0.00 | 71 | 1011.2 |
| 20260505000802 | 27 | 316 | 3.2 | 14.5 | 0.00 | 0.00 | 0.00 | 70 | 1011.2 |
| 20260505000304 | 27 | 173 | 3.2 | 14.5 | 0.00 | 0.00 | 0.00 | 70 | 1011.3 |
| 20260505000115 | 27 | 0 | 1.6 | 12.9 | 0.00 | 0.00 | 0.00 | 69 | 1011.6 |
| 20260504235803 | 27 | 285 | 0.0 | 11.3 | 0.00 | 0.00 | 0.00 | 70 | 1011.3 |
| 20260504235520 | 27 | 180 | 1.6 | 11.3 | 0.00 | 0.00 | 0.00 | 69 | 1011.1 |
| 20260504234800 | 27 | 198 | 1.6 | 11.3 | 0.00 | 0.00 | 0.00 | 69 | 1011.3 |
| 20260504234606 | 27 | 56 | 1.6 | 14.5 | 0.00 | 0.00 | 0.00 | 68 | 1011.7 |
| 20260504234301 | 27 | 161 | 0.0 | 6.4 | 0.00 | 0.00 | 0.00 | 69 | 1011.3 |
| 20260504233802 | 27 | 248 | 0.0 | 8.0 | 0.00 | 0.00 | 0.00 | 68 | 1011.2 |
| 20260504233523 | 27 | 209 | 0.0 | 9.7 | 0.00 | 0.00 | 0.00 | 68 | 1011.2 |
| 20260504233059 | 27 | 0 | 1.6 | 12.9 | 0.00 | 0.00 | 0.00 | 68 | 1011.5 |
| 20260504232800 | 28 | 165 | 0.0 | 12.9 | 0.00 | 0.00 | 0.00 | 68 | 1011.2 |
| 20260504232303 | 28 | 236 | 3.2 | 16.1 | 0.00 | 0.00 | 0.00 | 68 | 1011.3 |
| 20260504231801 | 28 | 225 | 1.6 | 16.1 | 0.00 | 0.00 | 0.00 | 67 | 1011.3 |
| 20260504231550 | 27 | 0 | 1.6 | 12.9 | 0.00 | 0.00 | 0.00 | 67 | 1011.4 |
| 20260504231303 | 28 | 253 | 1.6 | 14.5 | 0.00 | 0.00 | 0.00 | 68 | 1011.2 |
| 20260504230803 | 28 | 162 | 0.0 | 14.5 | 0.00 | 0.00 | 0.00 | 68 | 1011.3 |
| 20260504230302 | 28 | 338 | 1.6 | 8.0 | 0.00 | 0.00 | 0.00 | 67 | 1011.3 |
| 20260504230051 | 28 | 0 | 0.0 | 11.3 | 0.00 | 0.00 | 0.00 | 66 | 1011.7 |
| 20260504225802 | 28 | 186 | 0.0 | 11.3 | 0.00 | 0.00 | 0.00 | 67 | 1011.4 |
| 20260504225322 | 28 | 259 | 0.0 | 8.0 | 0.00 | 0.00 | 0.00 | 67 | 1011.6 |
| 20260504225318 | 28 | 240 | 1.6 | 11.3 | 0.00 | 0.00 | 0.00 | 67 | 1011.6 |
| 20260504224555 | 28 | 0 | 1.6 | 9.7 | 0.00 | 0.00 | 0.00 | 66 | 1011.8 |
| 20260504224301 | 28 | 41 | 0.0 | 9.7 | 0.00 | 0.00 | 0.00 | 67 | 1011.6 |
| 20260504223801 | 28 | 23 | 1.6 | 12.9 | 0.00 | 0.00 | 0.00 | 67 | 1011.6 |
| 20260504223301 | 28 | 209 | 3.2 | 12.9 | 0.00 | 0.00 | 0.00 | 67 | 1011.7 |
| 20260504223051 | 28 | 0 | 0.0 | 11.3 | 0.00 | 0.00 | 0.00 | 67 | 1011.8 |
| 20260504222801 | 28 | 72 | 1.6 | 11.3 | 0.00 | 0.00 | 0.00 | 67 | 1011.6 |
| 20260504222301 | 28 | 202 | 1.6 | 11.3 | 0.00 | 0.00 | 0.00 | 68 | 1011.6 |
| 20260504221801 | 28 | 56 | 1.6 | 14.5 | 0.00 | 0.00 | 0.00 | 67 | 1011.4 |
| 20260504221549 | 28 | 0 | 0.0 | 14.5 | 0.00 | 0.00 | 0.00 | 67 | 1011.8 |
| 20260504221300 | 28 | 30 | 4.8 | 14.5 | 0.00 | 0.00 | 0.00 | 67 | 1011.2 |
| 20260504221033 | 28 | 176 | 1.6 | 11.3 | 0.00 | 0.00 | 0.00 | 67 | 1011.3 |
| 20260504220303 | 28 | 231 | 1.6 | 11.3 | 0.00 | 0.00 | 0.00 | 67 | 1011.7 |
| 20260504220058 | 28 | 127 | 3.2 | 17.7 | 0.00 | 0.00 | 0.00 | 67 | 1011.6 |
| 20260504220021 | 28 | 168 | 1.6 | 11.3 | 0.00 | 0.00 | 0.00 | 67 | 1011.7 |
| 20260504215304 | 28 | 194 | 1.6 | 11.3 | 0.00 | 0.00 | 0.00 | 67 | 1011.6 |
| 20260504214802 | 28 | 300 | 3.2 | 14.5 | 0.00 | 0.00 | 0.00 | 67 | 1011.7 |
| 20260504214548 | 28 | 51 | 3.2 | 19.3 | 0.00 | 0.00 | 0.00 | 67 | 1011.9 |
| 20260504214302 | 28 | 257 | 1.6 | 20.9 | 0.00 | 0.00 | 0.00 | 67 | 1011.7 |
| 20260504213802 | 28 | 139 | 1.6 | 20.9 | 0.00 | 0.00 | 0.00 | 66 | 1011.7 |
| 20260504213302 | 28 | 200 | 6.4 | 17.7 | 0.00 | 0.00 | 0.00 | 66 | 1011.7 |
| 20260504213111 | 28 | 264 | 4.8 | 16.1 | 0.00 | 0.00 | 0.00 | 66 | 1012.0 |
| 20260504212802 | 28 | 113 | 3.2 | 14.5 | 0.00 | 0.00 | 0.00 | 67 | 1011.8 |
| 20260504212529 | 28 | 4 | 3.2 | 16.1 | 0.00 | 0.00 | 0.00 | 66 | 1011.9 |
| 20260504211802 | 28 | 219 | 3.2 | 16.1 | 0.00 | 0.00 | 0.00 | 66 | 1011.9 |
| 20260504211559 | 28 | 93 | 4.8 | 16.1 | 0.00 | 0.00 | 0.00 | 65 | 1012.1 |
| 20260504211302 | 28 | 26 | 1.6 | 16.1 | 0.00 | 0.00 | 0.00 | 66 | 1011.9 |
| 20260504210802 | 28 | 261 | 4.8 | 16.1 | 0.00 | 0.00 | 0.00 | 66 | 1012.2 |
| 20260504210303 | 28 | 208 | 3.2 | 16.1 | 0.00 | 0.00 | 0.00 | 66 | 1012.1 |
| 20260504210050 | 28 | 238 | 1.6 | 11.3 | 0.00 | 0.00 | 0.00 | 65 | 1012.5 |
| 20260504205802 | 28 | 98 | 1.6 | 11.3 | 0.00 | 0.00 | 0.00 | 66 | 1012.3 |
| 20260504205303 | 28 | 283 | 0.0 | 14.5 | 0.00 | 0.00 | 0.00 | 66 | 1012.4 |
| 20260504204802 | 28 | 336 | 1.6 | 14.5 | 0.00 | 0.00 | 0.00 | 65 | 1012.4 |
| 20260504204557 | 28 | 0 | 1.6 | 14.5 | 0.00 | 0.00 | 0.00 | 66 | 1012.7 |
| 20260504204526 | 28 | 20 | 8.0 | 14.5 | 0.00 | 0.00 | 0.00 | 66 | 1012.6 |
| 20260504203802 | 28 | 274 | 1.6 | 11.3 | 0.00 | 0.00 | 0.00 | 65 | 1012.6 |
| 20260504203302 | 28 | 269 | 1.6 | 11.3 | 0.00 | 0.00 | 0.00 | 66 | 1012.6 |
| 20260504203102 | 28 | 0 | 1.6 | 11.3 | 0.00 | 0.00 | 0.00 | 65 | 1012.8 |
| 20260504202802 | 28 | 146 | 1.6 | 11.3 | 0.00 | 0.00 | 0.00 | 65 | 1012.7 |
| 20260504202749 | 28 | 262 | 1.6 | 14.5 | 0.00 | 0.00 | 0.00 | 65 | 1012.7 |
| 20260504202024 | 29 | 236 | 3.2 | 14.5 | 0.00 | 0.00 | 0.00 | 64 | 1013.0 |
| 20260504201551 | 28 | 103 | 1.6 | 14.5 | 0.00 | 0.00 | 0.00 | 63 | 1013.1 |
| 20260504201301 | 29 | 320 | 3.2 | 14.5 | 0.00 | 0.00 | 0.00 | 64 | 1013.1 |
| 20260504200803 | 29 | 353 | 1.6 | 11.3 | 0.00 | 0.00 | 0.00 | 64 | 1013.0 |
| 20260504200520 | 29 | 87 | 1.6 | 8.0 | 0.00 | 0.00 | 0.00 | 65 | 1013.1 |
| 20260504200051 | 28 | 0 | 1.6 | 11.3 | 0.00 | 0.00 | 0.00 | 65 | 1013.5 |
| 20260504195803 | 28 | 153 | 1.6 | 12.9 | 0.00 | 0.00 | 0.00 | 65 | 1013.3 |
| 20260504195304 | 28 | 310 | 3.2 | 12.9 | 0.00 | 0.00 | 0.00 | 66 | 1013.2 |
| 20260504194802 | 28 | 330 | 0.0 | 16.1 | 0.00 | 0.00 | 0.00 | 68 | 1013.2 |
| 20260504194559 | 27 | 0 | 0.0 | 16.1 | 0.00 | 0.00 | 0.00 | 67 | 1013.4 |
| 20260504194527 | 28 | 165 | 0.0 | 16.1 | 0.00 | 0.00 | 0.00 | 68 | 1013.3 |
| 20260504193803 | 28 | 172 | 0.0 | 9.7 | 0.00 | 0.00 | 0.00 | 69 | 1013.5 |
| 20260504193303 | 28 | 58 | 1.6 | 11.3 | 0.00 | 0.00 | 0.00 | 68 | 1013.5 |
| 20260504193056 | 27 | 0 | 0.0 | 11.3 | 0.00 | 0.00 | 0.00 | 67 | 1013.8 |
| 20260504192801 | 28 | 335 | 3.2 | 11.3 | 0.00 | 0.00 | 0.00 | 67 | 1013.4 |
| 20260504192301 | 28 | 65 | 0.0 | 6.4 | 0.00 | 0.00 | 0.00 | 67 | 1013.5 |
| 20260504192020 | 28 | 150 | 1.6 | 9.7 | 0.00 | 0.00 | 0.00 | 67 | 1013.5 |
| 20260504191547 | 27 | 0 | 0.0 | 14.5 | 0.00 | 0.00 | 0.00 | 67 | 1013.9 |
| 20260504191520 | 28 | 356 | 1.6 | 11.3 | 0.00 | 0.00 | 0.00 | 68 | 1013.7 |
| 20260504190803 | 27 | 19 | 1.6 | 14.5 | 0.00 | 0.00 | 0.00 | 67 | 1013.7 |
| 20260504190303 | 28 | 203 | 0.0 | 14.5 | 0.00 | 0.00 | 0.00 | 68 | 1013.7 |
| 20260504190114 | 27 | 294 | 0.0 | 12.9 | 0.00 | 0.00 | 0.00 | 67 | 1014.1 |
| 20260504185802 | 28 | 304 | 1.6 | 12.9 | 0.00 | 0.00 | 0.00 | 68 | 1013.8 |
| 20260504185524 | 28 | 289 | 1.6 | 12.9 | 0.00 | 0.00 | 0.00 | 67 | 1013.9 |
| 20260504184800 | 28 | 231 | 3.2 | 9.7 | 0.00 | 0.00 | 0.00 | 66 | 1013.8 |
| 20260504184559 | 27 | 77 | 0.0 | 9.7 | 0.00 | 0.00 | 0.00 | 66 | 1014.1 |
| 20260504184300 | 28 | 250 | 1.6 | 9.7 | 0.00 | 0.00 | 0.00 | 66 | 1013.9 |
| 20260504184019 | 28 | 251 | 3.2 | 16.1 | 0.00 | 0.00 | 0.00 | 67 | 1013.9 |
| 20260504183254 | 27 | 200 | 1.6 | 16.1 | 0.00 | 0.00 | 0.00 | 68 | 1014.0 |
| 20260504183049 | 27 | 0 | 0.0 | 17.7 | 0.00 | 0.00 | 0.00 | 67 | 1014.1 |
| 20260504182753 | 27 | 25 | 3.2 | 11.3 | 0.00 | 0.00 | 0.00 | 68 | 1013.9 |
| 20260504182249 | 27 | 72 | 3.2 | 19.3 | 0.00 | 0.00 | 0.00 | 68 | 1014.1 |
| 20260504181748 | 27 | 274 | 3.2 | 19.3 | 0.00 | 0.00 | 0.00 | 68 | 1014.2 |
| 20260504181550 | 27 | 77 | 0.0 | 16.1 | 0.00 | 0.00 | 0.00 | 68 | 1014.3 |
| 20260504181246 | 27 | 134 | 1.6 | 12.9 | 0.00 | 0.00 | 0.00 | 69 | 1014.2 |
| 20260504180745 | 27 | 264 | 1.6 | 19.3 | 0.00 | 0.00 | 0.00 | 68 | 1014.3 |
| 20260504180243 | 27 | 263 | 1.6 | 19.3 | 0.00 | 0.00 | 0.00 | 68 | 1014.3 |
| 20260504180049 | 27 | 0 | 1.6 | 17.7 | 0.00 | 0.00 | 0.00 | 68 | 1014.4 |
| 20260504175740 | 27 | 344 | 1.6 | 19.3 | 0.00 | 0.00 | 0.00 | 68 | 1014.3 |
| 20260504175241 | 27 | 338 | 3.2 | 11.3 | 0.00 | 0.00 | 0.00 | 68 | 1014.3 |
| 20260504174737 | 27 | 99 | 0.0 | 11.3 | 0.00 | 0.00 | 0.00 | 69 | 1014.4 |
| 20260504174551 | 27 | 0 | 0.0 | 14.5 | 0.00 | 0.00 | 0.00 | 69 | 1014.6 |
| 20260504174236 | 27 | 286 | 1.6 | 17.7 | 0.00 | 0.00 | 0.00 | 69 | 1014.5 |
| 20260504173736 | 27 | 311 | 1.6 | 17.7 | 0.00 | 0.00 | 0.00 | 69 | 1014.4 |
| 20260504173235 | 27 | 140 | 0.0 | 8.0 | 0.00 | 0.00 | 0.00 | 69 | 1014.4 |
| 20260504173054 | 27 | 0 | 0.0 | 12.9 | 0.00 | 0.00 | 0.00 | 69 | 1014.7 |
| 20260504172734 | 27 | 272 | 0.0 | 12.9 | 0.00 | 0.00 | 0.00 | 69 | 1014.7 |
| 20260504172234 | 27 | 219 | 1.6 | 12.9 | 0.00 | 0.00 | 0.00 | 69 | 1014.8 |
| 20260504171953 | 26 | 286 | 0.0 | 11.3 | 0.00 | 0.00 | 0.00 | 69 | 1015.0 |
| 20260504171551 | 26 | 0 | 0.0 | 19.3 | 0.00 | 0.00 | 0.00 | 69 | 1015.3 |
| 20260504171232 | 26 | 256 | 1.6 | 12.9 | 0.00 | 0.00 | 0.00 | 69 | 1015.1 |
| 20260504170730 | 27 | 293 | 1.6 | 12.9 | 0.00 | 0.00 | 0.00 | 68 | 1014.9 |
| 20260504170458 | 27 | 160 | 0.0 | 9.7 | 0.00 | 0.00 | 0.00 | 69 | 1015.0 |
| 20260504160202 | 26 | 240 | 1.6 | 17.7 | 0.00 | 0.00 | 0.00 | 69 | 1015.2 |
| 20260504150920 | 26 | 197 | 3.2 | 16.1 | 0.00 | 0.00 | 0.00 | 73 | 1015.5 |
| 20260504150204 | 25 | 320 | 1.6 | 17.7 | 0.00 | 0.00 | 0.00 | 73 | 1015.6 |
| 20260504140921 | 24 | 195 | 0.0 | 14.5 | 0.00 | 0.00 | 0.00 | 78 | 1015.7 |
| 20260504140202 | 24 | 230 | 0.0 | 4.8 | 0.00 | 0.00 | 0.00 | 78 | 1015.8 |
| 20260504140104 | 23 | 308 | 0.0 | 6.4 | 0.00 | 0.00 | 0.00 | 77 | 1016.0 |
| 20260504130702 | 21 | 321 | 0.0 | 0.0 | 0.00 | 0.00 | 0.00 | 85 | 1016.1 |
| 20260504130421 | 21 | 321 | 0.0 | 1.6 | 0.00 | 0.00 | 0.00 | 85 | 1015.9 |
| 20260504110701 | 19 | 211 | 0.0 | 0.0 | 0.00 | 0.00 | 0.00 | 86 | 1015.6 |
| 20260504110202 | 19 | 211 | 0.0 | 0.0 | 0.00 | 0.00 | 0.00 | 86 | 1015.6 |
| 20260504110111 | 19 | 0 | 0.0 | 0.0 | 0.00 | 0.00 | 0.00 | 86 | 1015.9 |
| 20260504100425 | 20 | 211 | 0.0 | 0.0 | 0.00 | 0.00 | 0.00 | 85 | 1015.7 |
| 20260504090115 | 20 | 0 | 0.0 | 4.8 | 0.00 | 0.00 | 0.00 | 82 | 1016.3 |
| 20260504081640 | 20 | 345 | 0.0 | 3.2 | 0.00 | 0.00 | 0.00 | 82 | 1016.6 |
| 20260504081554 | 20 | 213 | 0.0 | 0.0 | 0.00 | 0.00 | 0.00 | 81 | 1017.0 |
| 20260504081138 | 20 | 48 | 0.0 | 1.6 | 0.00 | 0.00 | 0.00 | 81 | 1016.8 |
| 20260504080857 | 20 | 48 | 0.0 | 1.6 | 0.00 | 0.00 | 0.00 | 81 | 1016.8 |
| 20260504080355 | 20 | 359 | 0.0 | 0.0 | 0.00 | 0.00 | 0.00 | 81 | 1016.9 |
| 20260504080119 | 20 | 359 | 0.0 | 0.0 | 0.00 | 0.00 | 0.00 | 81 | 1016.9 |
| 20260504070107 | 20 | 238 | 0.0 | 0.0 | 0.00 | 0.00 | 0.00 | 79 | 1017.6 |
| 20260504050602 | 21 | 72 | 0.0 | 6.4 | 0.00 | 0.00 | 0.00 | 74 | 1019.0 |
| 20260504045823 | 22 | 155 | 0.0 | 6.4 | 0.00 | 0.00 | 0.00 | 73 | 1019.3 |
| 20260504045101 | 22 | 155 | 0.0 | 6.4 | 0.00 | 0.00 | 0.00 | 73 | 1019.3 |
| 20260504044601 | 22 | 3 | 0.0 | 6.4 | 0.00 | 0.00 | 0.00 | 73 | 1019.4 |
| 20260504044102 | 22 | 139 | 0.0 | 4.8 | 0.00 | 0.00 | 0.00 | 73 | 1019.4 |
| 20260504043602 | 22 | 250 | 0.0 | 11.3 | 0.00 | 0.00 | 0.00 | 72 | 1019.5 |
| 20260504043103 | 22 | 65 | 3.2 | 11.3 | 0.00 | 0.00 | 0.00 | 72 | 1019.6 |
| 20260504043050 | 22 | 155 | 1.6 | 9.7 | 0.00 | 0.00 | 0.00 | 72 | 1019.8 |
| 20260504042819 | 22 | 122 | 1.6 | 8.0 | 0.00 | 0.00 | 0.00 | 72 | 1019.6 |
| 20260504042102 | 22 | 267 | 0.0 | 6.4 | 0.00 | 0.00 | 0.00 | 72 | 1019.5 |
| 20260504041824 | 22 | 150 | 1.6 | 6.4 | 0.00 | 0.00 | 0.00 | 72 | 1019.5 |
| 20260504041550 | 22 | 0 | 0.0 | 8.0 | 0.00 | 0.00 | 0.00 | 71 | 1019.7 |
| 20260504041103 | 22 | 150 | 0.0 | 4.8 | 0.00 | 0.00 | 0.00 | 71 | 1019.5 |
| 20260504040602 | 22 | 134 | 0.0 | 6.4 | 0.00 | 0.00 | 0.00 | 71 | 1019.5 |
| 20260504040107 | 22 | 335 | 1.6 | 6.4 | 0.00 | 0.00 | 0.00 | 71 | 1019.5 |
| 20260504040056 | 22 | 0 | 0.0 | 4.8 | 0.00 | 0.00 | 0.00 | 70 | 1019.8 |
| 20260504035601 | 22 | 32 | 0.0 | 9.7 | 0.00 | 0.00 | 0.00 | 71 | 1019.4 |
| 20260504035101 | 22 | 60 | 1.6 | 9.7 | 0.00 | 0.00 | 0.00 | 70 | 1019.6 |
| 20260504034601 | 22 | 31 | 1.6 | 9.7 | 0.00 | 0.00 | 0.00 | 70 | 1019.7 |
| 20260504034554 | 22 | 0 | 0.0 | 9.7 | 0.00 | 0.00 | 0.00 | 70 | 1019.9 |
| 20260504034103 | 22 | 191 | 0.0 | 9.7 | 0.00 | 0.00 | 0.00 | 70 | 1019.6 |
| 20260504033602 | 22 | 288 | 1.6 | 9.7 | 0.00 | 0.00 | 0.00 | 70 | 1019.7 |
| 20260504033321 | 22 | 53 | 0.0 | 6.4 | 0.00 | 0.00 | 0.00 | 69 | 1019.4 |
| 20260504033056 | 22 | 59 | 0.0 | 6.4 | 0.00 | 0.00 | 0.00 | 69 | 1019.6 |
| 20260504032817 | 22 | 86 | 0.0 | 6.4 | 0.00 | 0.00 | 0.00 | 69 | 1019.5 |
| 20260504032102 | 22 | 44 | 0.0 | 6.4 | 0.00 | 0.00 | 0.00 | 69 | 1019.5 |
| 20260504031828 | 22 | 180 | 0.0 | 6.4 | 0.00 | 0.00 | 0.00 | 68 | 1019.4 |
| 20260504031550 | 22 | 0 | 0.0 | 8.0 | 0.00 | 0.00 | 0.00 | 68 | 1019.7 |
| 20260504031103 | 22 | 259 | 0.0 | 9.7 | 0.00 | 0.00 | 0.00 | 68 | 1019.4 |
| 20260504030602 | 22 | 129 | 0.0 | 9.7 | 0.00 | 0.00 | 0.00 | 67 | 1019.3 |
| 20260504030107 | 23 | 226 | 1.6 | 9.7 | 0.00 | 0.00 | 0.00 | 67 | 1019.3 |
| 20260504030052 | 22 | 0 | 0.0 | 8.0 | 0.00 | 0.00 | 0.00 | 66 | 1019.6 |
| 20260504025600 | 23 | 20 | 3.2 | 12.9 | 0.00 | 0.00 | 0.00 | 67 | 1019.4 |
| 20260504025101 | 23 | 321 | 3.2 | 12.9 | 0.00 | 0.00 | 0.00 | 66 | 1019.3 |
| 20260504024828 | 23 | 217 | 1.6 | 12.9 | 0.00 | 0.00 | 0.00 | 66 | 1019.1 |
| 20260504024548 | 22 | 98 | 0.0 | 12.9 | 0.00 | 0.00 | 0.00 | 65 | 1019.4 |
| 20260504024323 | 23 | 195 | 0.0 | 12.9 | 0.00 | 0.00 | 0.00 | 66 | 1019.1 |
| 20260504023601 | 23 | 258 | 3.2 | 12.9 | 0.00 | 0.00 | 0.00 | 65 | 1019.1 |
| 20260504023101 | 23 | 157 | 3.2 | 12.9 | 0.00 | 0.00 | 0.00 | 65 | 1018.9 |
| 20260504023048 | 23 | 182 | 1.6 | 12.9 | 0.00 | 0.00 | 0.00 | 64 | 1019.2 |
| 20260504022601 | 23 | 216 | 0.0 | 9.7 | 0.00 | 0.00 | 0.00 | 64 | 1018.9 |
| 20260504022101 | 23 | 285 | 1.6 | 11.3 | 0.00 | 0.00 | 0.00 | 64 | 1018.8 |
| 20260504021602 | 23 | 181 | 1.6 | 11.3 | 0.00 | 0.00 | 0.00 | 64 | 1018.9 |
| 20260504021547 | 23 | 0 | 1.6 | 11.3 | 0.00 | 0.00 | 0.00 | 63 | 1019.1 |
| 20260504021057 | 23 | 170 | 1.6 | 12.9 | 0.00 | 0.00 | 0.00 | 63 | 1018.6 |
| 20260504020550 | 23 | 225 | 1.6 | 12.9 | 0.00 | 0.00 | 0.00 | 63 | 1018.8 |
| 20260504020310 | 23 | 103 | 1.6 | 9.7 | 0.00 | 0.00 | 0.00 | 62 | 1018.6 |
| 20260504020052 | 23 | 110 | 1.6 | 12.9 | 0.00 | 0.00 | 0.00 | 62 | 1018.9 |
| 20260504015547 | 23 | 148 | 1.6 | 14.5 | 0.00 | 0.00 | 0.00 | 62 | 1018.6 |
| 20260504015250 | 24 | 220 | 3.2 | 16.1 | 0.00 | 0.00 | 0.00 | 61 | 1018.6 |
| 20260504014542 | 23 | 337 | 1.6 | 16.1 | 0.00 | 0.00 | 0.00 | 60 | 1018.7 |
| 20260504014530 | 24 | 309 | 1.6 | 16.1 | 0.00 | 0.00 | 0.00 | 61 | 1018.5 |
| 20260504014031 | 24 | 317 | 3.2 | 12.9 | 0.00 | 0.00 | 0.00 | 60 | 1018.4 |
| 20260504013801 | 24 | 302 | 3.2 | 12.9 | 0.00 | 0.00 | 0.00 | 60 | 1018.4 |
| 20260504013051 | 24 | 0 | 0.0 | 4.8 | 0.00 | 0.00 | 0.00 | 59 | 1018.5 |
| 20260504013030 | 24 | 257 | 1.6 | 6.4 | 0.00 | 0.00 | 0.00 | 59 | 1018.2 |
| 20260504012749 | 24 | 168 | 0.0 | 6.4 | 0.00 | 0.00 | 0.00 | 58 | 1018.2 |
| 20260504012029 | 24 | 65 | 0.0 | 9.7 | 0.00 | 0.00 | 0.00 | 58 | 1018.0 |
| 20260504011550 | 24 | 0 | 1.6 | 9.7 | 0.00 | 0.00 | 0.00 | 57 | 1018.3 |
| 20260504011529 | 25 | 262 | 1.6 | 9.7 | 0.00 | 0.00 | 0.00 | 57 | 1018.0 |
| 20260504011029 | 25 | 301 | 1.6 | 8.0 | 0.00 | 0.00 | 0.00 | 57 | 1018.1 |
| 20260504010529 | 25 | 180 | 0.0 | 16.1 | 0.00 | 0.00 | 0.00 | 56 | 1018.1 |
| 20260504010055 | 25 | 0 | 1.6 | 14.5 | 0.00 | 0.00 | 0.00 | 55 | 1018.3 |
| 20260504010028 | 25 | 175 | 1.6 | 16.1 | 0.00 | 0.00 | 0.00 | 55 | 1018.1 |
| 20260504005529 | 25 | 198 | 1.6 | 11.3 | 0.00 | 0.00 | 0.00 | 55 | 1018.1 |
| 20260504005028 | 25 | 248 | 0.0 | 11.3 | 0.00 | 0.00 | 0.00 | 55 | 1018.1 |
| 20260504004547 | 25 | 0 | 0.0 | 8.0 | 0.00 | 0.00 | 0.00 | 54 | 1018.4 |
| 20260504004531 | 25 | 321 | 1.6 | 9.7 | 0.00 | 0.00 | 0.00 | 54 | 1018.1 |
| 20260504004030 | 25 | 1 | 0.0 | 12.9 | 0.00 | 0.00 | 0.00 | 54 | 1018.0 |
| 20260504003530 | 25 | 307 | 0.0 | 12.9 | 0.00 | 0.00 | 0.00 | 53 | 1017.9 |